Location: Colle Santa Colomba
(42.0333°N, 12.5667°E)
Time: 02:57:28
(UTC+00:00)

USA 229 DEB - Pass Details

Date: 25 October 2021
Orbit: 944 x 1268 km, 63.4° (Epoch: 25 November)

Event Time Altitude Azimuth Distance (km) Brightness Sun altitude
Rises 16:39:18 0° 190° (S) 3,604 6.8 -5.6°
Reaches altitude 10° 16:41:55 10° 184° (S) 2,679 6.0 -6.1°
Maximum altitude 16:47:43 42° 115° (ESE) 1,379 4.0 -7.1°
Drops below altitude 10° 16:53:53 10° 47° (NE) 2,845 5.4 -8.2°
Enters shadow 16:56:25 - 42° (NE) 3,738 6.1 -8.7°
